Theta_e
320 319 318 317 317 316 316 314 312 306 307 299 297 293 294 296 296 302 304 301 308 310 311 311 312 313 314 316 319 320 317 315 314 313 313 313 314 315
318 317 317 316 316 317 316 316 315 313 307 295 289 290 292 293 293 298 298 298 301 305 306 307 309 309 310 311 312 312 312 312 311 311 311 311 311 311
311 314 310 310 310 311 311 313 313 313 308 287 288 288 287 288 289 291 293 296 298 300 302 303 304 305 306 307 307 307 307 307 307 307 307 307 308 308
299 300 298 299 298 299 300 299 300 299 297 286 285 285 285 285 286 287 288 290 294 298 300 300 300 300 300 301 301 301 302 303 303 304 305 305 305 307
296 295 294 295 294 294 294 293 293 293 293 288 284 285 285 285 285 286 286 286 288 291 294 296 297 297 297 297 297 297 296 297 297 297 298 299 300 302
290 291 292 292 292 292 291 291 291 289 289 286 285 284 284 284 285 285 283 284 284 286 288 289 291 293 294 293 293 293 294 294 294 293 293 294 296 297
286 287 287 288 289 291 291 290 289 287 286 285 284 284 284 284 284 284 282 282 281 282 282 283 283 282 283 286 288 290 292 292 291 291 292 293 294 294
284 284 285 286 287 288 289 291 290 288 286 285 285 284 284 284 284 283 282 281 280 281 280 279 281 279 280 281 287 288 290 290 290 291 291 291 291 291
283 283 282 283 283 284 285 285 285 288 288 285 285 283 283 284 284 283 283 282 280 279 280 278 279 278 279 281 286 289 289 290 290 289 289 288 288 288
282 283 282 282 282 282 282 282 282 282 281 281 280 280 281 282 283 283 281 278 278 278 279 276 275 274 277 280 287 289 289 288 287 287 287 287 286 285
282 282 282 281 284 283 280 279 279 280 285 285 285 285 285 285 283 281 279 279 276 274 274 273 271 271 274 276 282 289 288 286 285 284 284 285 284 282
281 282 283 282 283 282 279 278 276 277 277 277 277 277 278 278 279 277 277 271 269 268 272 271 270 270 268 276 278 281 283 285 283 283 283 282 280 274
280 280 282 284 284 283 282 279 278 278 278 275 274 273 274 274 273 274 274 274 269 267 275 269 266 266 266 267 275 277 279 277 276 277 280 279 279 275
279 279 281 283 282 282 281 282 281 276 272 270 270 270 271 271 271 270 269 270 271 271 270 269 265 265 262 263 267 272 275 275 275 271 268 275 277 277
280 280 280 279 278 278 279 277 272 270 269 268 269 270 271 269 268 268 266 265 264 265 267 266 267 266 267 266 266 268 271 269 270 269 268 267 268 267
279 277 278 276 275 272 269 270 270 269 268 267 268 267 266 263 263 264 263 263 263 262 264 266 264 263 262 267 268 266 268 266 266 266 266 265 266 266
274 274 271 269 268 267 266 265 266 266 265 264 263 262 264 264 264 262 261 259 260 261 262 263 262 260 262 262 260 264 266 264 265 262 262 261 264 266
267 264 266 266 266 265 264 263 263 263 263 262 261 261 261 261 260 260 260 256 257 258 258 259 259 259 261 262 267 260 261 261 262 260 260 258 259 263
264 263 263 263 263 263 262 261 261 261 258 259 258 258 258 258 258 256 257 256 256 255 255 255 255 253 251 255 261 270 260 261 258 258 259 259 259 263
258 258 259 259 259 259 259 257 257 257 257 257 257 254 254 253 254 253 254 252 252 251 253 252 254 253 252 253 253 260 269 258 259 258 259 258 263 271
254 255 255 255 255 255 255 254 253 253 252 252 251 251 251 251 251 251 252 253 252 249 251 252 257 258 252 251 253 254 257 269 265 258 256 256 256 258
252 252 251 250 251 251 251 250 251 251 251 250 250 250 250 250 251 249 249 250 249 250 252 253 253 252 252 254 252 253 258 259 266 269 271 268 260 255
251 251 250 249 249 248 248 249 249 251 249 249 249 249 248 250 249 250 249 247 248 249 249 250 250 251 254 256 254 253 252 255 259 261 263 268 270 271
Wind_Speed
15 16 11 7 6 6 7 5 6 3 5 1 2 3 3 2 3 1 2 2 5 5 6 7 9 9 13 16 10 12 17 17 17 16 17 21 22 24
8 13 11 6 8 6 6 5 6 6 4 1 3 3 5 4 7 6 7 10 12 14 15 14 14 16 17 17 16 18 19 17 17 17 17 19 21 22
6 9 8 6 5 5 5 4 7 6 3 2 2 4 5 5 7 8 8 8 9 16 18 18 18 17 16 16 16 14 15 14 15 15 15 14 15 13
6 8 6 4 7 5 4 3 4 3 4 4 2 2 4 4 5 9 7 8 8 15 19 18 20 18 19 18 18 17 16 15 13 12 12 10 12 17
10 10 9 8 6 4 5 5 3 4 4 5 4 2 2 3 5 6 7 8 8 16 18 17 17 17 16 15 15 15 15 15 15 15 14 14 14 14
11 12 11 9 6 5 7 6 6 6 6 8 5 4 3 3 3 4 5 5 5 6 12 13 14 14 13 12 12 10 10 12 12 12 11 11 12 13
14 15 15 14 18 9 5 6 8 7 7 7 5 4 4 3 4 2 4 3 4 3 4 4 5 4 4 7 6 7 10 11 11 12 13 13 14 14
16 14 14 13 17 25 25 18 11 8 9 4 5 7 5 4 4 4 4 2 2 2 2 3 2 2 3 3 4 7 9 11 12 14 14 13 14 14
17 11 12 8 11 12 23 23 22 23 15 5 10 4 4 3 6 5 3 2 2 2 2 2 2 2 3 3 2 7 10 12 13 12 12 12 12 14
15 14 12 11 12 13 15 16 16 15 13 9 10 7 6 5 5 3 4 5 5 3 3 2 2 2 3 3 7 9 13 10 10 10 10 11 12 12
15 13 13 14 18 18 14 16 14 13 18 22 21 21 19 15 7 5 3 3 2 1 3 3 1 1 2 2 5 12 13 10 9 9 8 11 10 9
14 16 24 15 21 18 11 10 11 7 7 8 7 13 13 13 17 8 2 3 3 2 2 3 1 2 1 1 2 3 4 14 10 8 8 9 8 3
11 10 11 22 22 21 17 9 8 8 12 8 7 6 7 8 7 7 7 4 3 2 2 3 1 1 2 1 1 2 3 3 3 3 7 6 7 6
11 8 10 22 21 20 14 17 17 12 5 6 6 5 5 5 5 5 7 6 6 6 2 2 3 2 2 1 2 1 1 1 2 2 1 2 3 2
9 16 21 20 20 17 18 17 11 6 4 6 5 3 4 3 2 4 3 5 6 5 4 4 3 0 1 2 3 2 3 2 2 3 2 3 3 1
13 10 15 15 15 12 8 10 7 6 4 3 2 1 2 3 2 3 3 3 3 3 4 6 6 2 1 2 2 1 1 3 1 1 2 2 1 1
7 5 5 5 7 6 6 6 5 5 5 2 1 2 3 3 4 3 2 3 3 1 2 4 5 2 2 3 2 1 1 1 1 2 3 1 2 1
6 4 3 4 4 4 4 5 4 4 1 2 3 3 3 3 3 3 3 3 2 3 3 2 3 3 4 4 3 1 2 1 1 2 2 2 3 3
4 3 4 4 4 4 4 3 2 1 1 3 3 3 3 3 4 2 2 3 4 3 2 2 3 3 3 1 3 3 2 2 2 2 1 2 2 3
3 4 3 3 2 3 2 2 1 2 2 2 3 3 4 3 3 3 3 2 2 3 3 3 2 2 4 3 2 3 7 2 2 1 1 2 3 8
2 3 2 2 2 2 2 3 3 3 3 3 3 3 3 3 2 2 2 3 2 2 2 2 2 2 2 2 4 4 4 8 2 4 2 2 1 2
3 3 2 2 3 3 3 3 3 3 2 2 1 1 1 2 1 0 1 0 1 2 2 2 2 2 2 2 3 3 3 3 6 11 10 11 4 2
2 2 2 1 1 1 2 2 1 0 1 1 1 1 1 0 2 2 2 2 2 2 2 3 2 1 2 3 4 3 3 4 2 4 5 12 15 16
Wind_Direction
201 170 191 186 173 171 192 166 196 179 211 97 171 30 22 17 352 57 83 121 147 182 213 211 217 218 237 238 195 168 142 135 129 116 103 98 88 85
175 181 182 174 177 184 202 179 219 215 209 53 48 46 20 25 23 53 69 82 95 96 91 85 103 102 95 99 102 106 109 111 107 107 106 104 102 104
165 163 162 148 158 169 191 193 206 199 169 66 72 26 43 28 44 45 41 57 58 75 83 80 79 81 83 89 92 99 106 113 112 110 107 106 109 113
116 109 97 105 120 122 108 105 134 100 104 121 123 82 74 29 51 64 51 50 62 63 70 75 79 78 80 79 78 74 69 69 75 85 93 107 113 120
113 99 92 90 89 104 109 104 86 93 99 126 131 123 100 70 70 64 59 61 53 57 62 65 72 75 76 75 77 77 79 82 82 79 79 79 80 93
83 94 82 95 104 118 107 119 117 97 100 106 92 100 102 82 74 98 70 39 52 43 58 57 61 63 69 76 79 79 98 99 92 92 92 94 94 93
82 75 78 75 73 62 92 99 102 104 101 110 112 117 114 137 128 105 90 85 47 49 54 44 59 71 57 71 75 102 119 115 112 110 107 103 102 105
94 78 73 78 86 76 73 71 76 103 112 107 116 127 111 100 108 104 119 135 103 255 71 53 50 55 52 19 120 131 130 125 124 121 117 114 111 110
93 97 88 63 77 84 74 70 64 65 64 93 116 102 117 140 137 127 154 130 109 106 118 105 35 63 1 359 131 125 128 119 116 114 113 112 108 106
78 81 91 87 75 86 84 76 66 63 64 69 75 68 67 72 84 95 93 94 79 65 24 108 9 23 335 340 173 147 124 125 123 119 112 116 110 102
67 71 74 77 83 85 86 88 79 74 74 79 79 74 69 65 82 99 96 115 109 26 16 104 268 70 356 350 354 151 128 127 124 119 120 122 107 96
61 67 68 73 77 75 80 88 93 84 87 70 60 56 49 52 54 58 78 125 126 43 324 95 68 125 22 324 350 20 126 141 132 128 120 112 105 83
70 62 70 76 78 80 80 77 89 95 83 76 67 64 61 46 37 32 42 65 108 108 0 100 142 59 95 162 62 25 86 96 75 103 120 116 113 114
82 75 76 77 73 72 71 82 89 82 72 66 72 57 61 65 59 46 50 56 51 86 26 66 129 133 137 86 166 188 109 85 105 136 104 100 94 138
79 76 69 66 63 62 69 69 55 57 71 69 65 72 73 52 39 83 58 66 66 41 32 36 76 145 118 155 163 176 135 203 171 146 126 131 151 137
78 68 73 77 78 70 51 49 47 42 55 88 89 37 38 43 32 37 40 13 73 14 8 38 38 58 29 20 90 144 174 180 144 116 119 92 91 166
103 83 77 59 56 57 51 44 38 40 50 14 54 74 61 51 29 14 39 16 65 65 357 360 352 12 51 134 60 324 205 107 127 132 77 53 307 253
49 66 76 80 86 83 82 67 37 47 31 78 54 51 55 60 43 11 39 62 74 27 40 328 333 6 8 346 161 177 13 95 33 60 70 109 307 286
95 95 98 82 71 79 79 95 158 187 146 70 78 65 60 56 56 25 26 52 32 27 339 335 31 78 60 240 303 70 126 23 51 24 104 139 194 277
60 89 99 104 107 124 149 133 95 59 59 55 59 53 51 63 46 32 35 70 46 3 353 349 42 132 136 207 246 293 346 114 121 197 292 306 250 272
86 87 105 104 115 98 72 59 60 46 46 45 33 44 38 70 30 32 28 39 66 64 347 310 265 109 125 57 16 318 302 327 186 168 193 129 249 318
57 70 41 54 62 66 60 61 57 47 50 61 76 72 55 97 113 327 1 15 273 215 235 273 326 37 63 147 230 251 298 301 340 315 274 220 166 223
148 141 138 121 108 113 105 100 118 168 149 169 159 213 138 209 222 224 227 229 230 267 241 295 307 36 227 202 200 255 261 297 302 305 287 289 286 280